Regional Weather Roundup
Issued by NWS

Home | Current Version | Previous Version | Graphics & Text | Print | Product List | Glossary On
Versions: 1 2 3 4 5 6 7 8 9 10 11 12 13 14 15 16 17 18 19 20 21 22 23 24 25 26 27 28 29 30 31 32 33 34 35 36 37 38 39 40 41 42 43 44 45 46 47 48 49 50
000
ASUS43 KMKX 100821
RWRWI

WISCONSIN REGIONAL WEATHER ROUNDUP
NATIONAL WEATHER SERVICE MILWAUKEE/SULLIVAN WI
200 AM CST WED FEB 10 2016

NOTE: "FAIR" INDICATES FEW OR NO CLOUDS BELOW 12,000 FEET WITH NO
SIGNIFICANT WEATHER AND/OR OBSTRUCTIONS TO VISIBILITY.

WIZ001-002-006>008-014>016-023>028-100900-
NORTHWEST WISCONSIN

CITY           SKY/WX    TMP DP  RH WIND       PRES   REMARKS
SUPERIOR ARPT  CLOUDY    -2  -8  77 NW7       30.15R WCI -16
ASHLAND        CLOUDY     5  -1  76 N10       30.07F WCI -10
HAYWARD        CLOUDY     3  -3  76 NW5       30.04F WCI  -6
SIREN          PTCLDY    -5  -9  82 NW5       30.11R WCI -16
CUMBERLAND     CLOUDY     0  -8  71 N8        30.07R WCI -15
RICE LAKE      CLOUDY     2  -5  73 NW6       30.08F WCI -10
CHETEK         CLOUDY    -1  -6  80 MISG      30.07S
LADYSMITH      CLOUDY     1  -3  80 NW6       30.03F WCI -10
EAU CLAIRE     PTCLDY     2  -7  66 NW8       30.07F WCI -12
MENOMONIE      CLOUDY     3  -7  63 NW9       30.10R WCI -11
NEW RICHMOND   PTCLDY     1  -6  73 N7        30.10F WCI -12
OSCEOLA        PTCLDY     3  -4  70 N5        30.14F WCI  -6
$$

WIZ003>005-009-010-017-018-100900-
NORTH CENTRAL WISCONSIN

CITY           SKY/WX    TMP DP  RH WIND       PRES   REMARKS
MANITOWISH WTR FLURRIES   4   0  83 N6        29.92S WCI  -7
ARBOR VITAE    FLURRIES   5   0  78 NW5       29.92R WCI  -4
WOODRUFF       FLURRIES   5   0  78 NW5       29.92R WCI  -4
RHINELANDER    CLOUDY     5  -3  69 N6        29.91S WCI  -6
EAGLE RIVER    CLOUDY     4  -4  69 N8        29.90S WCI  -9
LAND O LAKES   FLURRIES   5   0  79 N8        29.91S WCI  -9
PHILLIPS       CLOUDY     3  -2  78 NW5       29.96S WCI  -6
TOMAHAWK       CLOUDY     5   0  78 NW8       29.94S WCI  -8
MEDFORD        CLOUDY     5  -2  72 NW9       29.95S WCI  -9
MERRILL        CLOUDY     7   1  75 NW6       29.96R WCI  -3
$$

WIZ029-030-035-036-043>047-100900-
CENTRAL WISCONSIN

CITY           SKY/WX    TMP DP  RH WIND       PRES   REMARKS
WAUSAU         CLOUDY     9   0  67 NW12      29.95R WCI  -6
MOSINEE        CLOUDY     9   1  72 NW9       29.96R WCI  -5
MARSHFIELD     MOCLDY     7  -4  60 NW15      29.97R WCI -10
STEVENS POINT  CLOUDY     8  -2  65 NW7       29.97R WCI  -4
WAUPACA        CLOUDY    13   0  56 N10G17    29.97R WCI   0
WAUTOMA        CLOUDY    11  -1  58 NW8       29.98F WCI  -1
WISC RAPIDS    CLOUDY     9  -2  61 NW12      30.00R WCI  -6
CAMP DOUGLAS   CLOUDY     6   0  74 W14       30.03R WCI -11
$$

WIZ011>013-019>022-031-037>040-048>050-100900-
NORTHEAST WISCONSIN

CITY           SKY/WX    TMP DP  RH WIND       PRES   REMARKS
ANTIGO         CLOUDY     6  -2  69 N15       29.91R WCI -12
SHAWANO        CLOUDY    13   0  56 N8G16     29.96R WCI   1
OCONTO         CLEAR      9  -4  55 NW10      29.94S WCI  -5
STURGEON BAY   CLEAR      9  -2  61 NW16      29.92S WCI  -9
GREEN BAY      CLEAR      9  -3  58 NW12      29.94S WCI  -6
MANITOWOC      CLEAR     10  -1  61 NW18G25   29.92S WCI  -8
APPLETON       MOCLDY    10  -4  52 NW17      29.92R WCI  -7
CLINTONVILLE   CLOUDY    12  -4  48 N12       29.96R WCI  -2
OSHKOSH        MOCLDY    11   0  61 NW14      29.94S WCI  -5
$$

WIZ032>034-041-042-053>061-100900-
SOUTHWEST WISCONSIN

CITY           SKY/WX    TMP DP  RH WIND       PRES   REMARKS
LA CROSSE      PTCLDY     4  -6  63 NW12      30.09S WCI -12
SPARTA         PTCLDY     5  -4  67 NW9       30.06S WCI  -9
VIROQUA        PTCLDY     3  -6  67 NW13      30.01R WCI -14
BOSCOBEL       PTCLDY     1  -5  75 W3        30.09R
PRAIRIE DU CHI PTCLDY     5  -5  63 NW6       30.09S WCI  -6
PLATTEVILLE    CLEAR      5  -2  72 NW8       30.03R WCI  -8
$$

WIZ056-057-062-063-064-067-068-100900-
SOUTH CENTRAL WISCONSIN

CITY           SKY/WX    TMP DP  RH WIND       PRES   REMARKS
REEDSBURG      CLOUDY     7  -1  70 W7        30.01S WCI  -5
BARABOO/DELLS  CLOUDY     8   0  69 NW6       29.99S WCI  -2
LONE ROCK      CLOUDY     6  -3  66 W8        30.06R WCI  -7
MINERAL POINT  CLEAR      5   0  78 NW8       30.00S WCI  -8
MADISON        CLOUDY    10  -1  61 NW9       29.98F WCI  -3
MIDDLETON      CLOUDY    11   2  68 NW8       29.99S WCI  -1
WATERTOWN      PTCLDY    10   1  67 NW8       29.95F WCI  -3
MONROE         CLOUDY     9   1  72 NW9       29.98S WCI  -5
JANESVILLE     MOCLDY    12   1  62 NW10      29.98F WCI  -1
$$

WIZ051-052-058>065-066-070>072-100900-
SOUTHEAST WISCONSIN

CITY           SKY/WX    TMP DP  RH WIND       PRES   REMARKS
MILWAUKEE      MOCLDY    12   1  61 NW13      29.94S WCI  -3
WAUKESHA       CLEAR      9   0  66 NW10      29.94S WCI  -6
MILWAUKEE/TIMM CLEAR     10   0  61 NW13      29.94F WCI  -5
RACINE         CLOUDY    12   1  61 NW10      29.96R WCI  -1
BURLINGTON     CLEAR      7  -1  67 NW12      29.95S WCI  -8
KENOSHA        CLOUDY    12   2  64 NW10      29.94S WCI  -1
FOND DU LAC    CLEAR     10   0  63 NW10      29.95S WCI  -4
SHEBOYGAN      CLEAR     10  -2  58 NW14      29.92S WCI  -6
WEST BEND      CLEAR     10   1  67 NW5       29.92S WCI   2
JUNEAU         CLEAR      8  -1  68 NW8       29.95F WCI  -5
$$

LSZ147-162-100900-
LAKE SUPERIOR

STATION/POSITION TIME  TEMP    WIND        PRES    WAVE
                       AIR SEA DIR/SP/G            HT/PER
                 (UTC) (F)     (DEG/KT/KT) (MB)    (FT/S)
DEVILS ISLAND    0800    6      20/ 15/ 17 1020.5F
PORT WING        0600    7      10/  7/ 15 1019.6F
SAXON HARBOR     0700    9                 1017.6
$$

LMZ867-665-643>646-100900-
LAKE MICHIGAN

STATION/POSITION TIME  TEMP    WIND        PRES    WAVE
                       AIR SEA DIR/SP/G            HT/PER
                 (UTC) (F)     (DEG/KT/KT) (MB)    (FT/S)
CHAMBERS ISLAND  0700   11     300/ 17/ 25 1012.5R
ALGOMA LAKESHORE 0711          320/ 14/ 20   N/A
KEWAUNEE LAKESHO 0700   11     310/ 12/ 20 1012.1R
SHEBOYGAN LAKESH 0800   11     320/ 16/ 18 1014.7S
PORT WASHINGTON  0700   13     310/  9/ 14 1014.6S
MILWAUKEE LAKESH 0710   14     310/ 10/ 14   N/A
KENOSHA   LAKESH 0800   13     310/ 11/ 16 1014.2R
$$

TC  - TEMPERATURE IN CELSIUS
VSB - VISIBILITY IN STATUTE MILES
WCI - WIND CHILL INDEX
HX  - HEAT INDEX




USA.gov is the U.S. government's official web portal to all federal, state and local government web resources and services.